Weather History for KJQF - August, 2014

Change the Weather History Date:

Sunday, August 24, 2014

  Actual Average (KCLT) Record (KCLT)
Temperature  
Mean Temperature 72 °F 77 °F  
Max Temperature 78 °F 87 °F 97 °F (1968)
Min Temperature 66 °F 67 °F 55 °F (1888)
Degree Days  
Heating Degree Days 0 0  
Month to date heating degree days 0  
Since 1 June heating degree days 3  
Since 1 July heating degree days 0  
Cooling Degree Days 7 12  
Month to date cooling degree days 305  
Year to date cooling degree days 1199  
Since 1 June cooling degree days 1036  
Growing Degree Days 22 (Base 50)    
Moisture  
Dew Point 67 °F    
Average Humidity 81    
Maximum Humidity 94    
Minimum Humidity 61    
Precipitation  
Precipitation 0.01 in 0.14 in 2.35 in (1983)
Month to date precipitation 3.31  
Year to date precipitation 27.69  
Snow  
Snow 0.00 in 0.00 in 0.00 in ()
Month to date snowfall 0.0  
Since 1 June snowfall 0.0  
Since 1 July snowfall 0.0  
Snow Depth -    
Sea Level Pressure  
Sea Level Pressure 30.07 in    
Wind  
Wind Speed 3 mph (ENE)    
Max Wind Speed 9 mph    
Max Gust Speed -    
Visibility 9 miles    
Events Rain , Thunderstorm    
T = Trace of Precipitation, MM = Missing Value Source: NWS Daily Summary

Daily Weather History Graph

Daily Weather History Graph

Search for Another Location

Airport or City:

Trip Planner

Search our weather history database for the weather conditions in past years. The results will help you decide how hot, cold, wet, or windy it might be!

Date:

Astronomy

Aug. 24, 2014 Rise Set
Actual Time 6:49 AM EDT 8:00 PM EDT
Civil Twilight 6:22 AM EDT 8:26 PM EDT
Nautical Twilight 5:51 AM EDT 8:58 PM EDT
Astronomical Twilight 5:18 AM EDT 9:30 PM EDT
Moon 5:58 AM EDT (8/24) 7:19 PM EDT (8/24)
Length of Visible Light 14h 04m
Length of Day
13h 11m
Waning Crescent, 1% of the Moon is Illuminated
Aug 24
Waning Crescent
Aug 25
New
Sep 2
First Quarter
Sep 8
Full
Sep 15
Last Quarter

Hourly Weather History & Observations

Time (EDT) Temp. Dew Point Humidity Pressure Visibility Wind Dir Wind Speed Gust Speed Precip Events Conditions
12:15 AM 75.2 °F 71.6 °F 89% 30.02 in 7.0 mi NNE 4.6 mph - 0.01 in Rain Light Rain
12:35 AM 75.2 °F 71.6 °F 89% 30.02 in 7.0 mi Calm Calm - 0.01 in   Overcast
12:55 AM 75.2 °F 71.6 °F 89% 30.02 in 5.0 mi Calm Calm - 0.01 in Rain , Thunderstorm Rain
1:15 AM 75.2 °F 71.6 °F 89% 30.03 in 5.0 mi Calm Calm - N/A Thunderstorm Unknown
1:35 AM 75.2 °F 71.6 °F 89% 30.02 in 5.0 mi Calm Calm - N/A Thunderstorm Overcast
1:55 AM 73.4 °F 71.6 °F 94% 30.02 in 5.0 mi Calm Calm - N/A   Overcast
2:15 AM 73.4 °F 71.6 °F 94% 30.01 in 7.0 mi Calm Calm - N/A   Mostly Cloudy
2:35 AM 73.4 °F 71.6 °F 94% 30.02 in 7.0 mi Calm Calm - N/A   Mostly Cloudy
2:55 AM 73.4 °F 71.6 °F 94% 30.00 in 5.0 mi Calm Calm - N/A   Overcast
3:15 AM 73.4 °F 71.6 °F 94% 30.00 in 7.0 mi NNE 3.5 mph - N/A   Mostly Cloudy
3:35 AM 73.4 °F 71.6 °F 94% 29.99 in 7.0 mi Calm Calm - N/A   Scattered Clouds
3:55 AM 73.4 °F 71.6 °F 94% 30.00 in 7.0 mi Calm Calm - N/A   Mostly Cloudy
4:15 AM 73.4 °F 71.6 °F 94% 29.99 in 7.0 mi Calm Calm - N/A   Overcast
4:35 AM 73.4 °F 69.8 °F 88% 30.00 in 7.0 mi NE 3.5 mph - N/A   Overcast
4:55 AM 73.4 °F 69.8 °F 88% 30.00 in 10.0 mi Calm Calm - N/A   Overcast
5:15 AM 73.4 °F 69.8 °F 88% 30.01 in 10.0 mi Calm Calm - N/A   Overcast
5:35 AM 73.4 °F 69.8 °F 88% 30.01 in 10.0 mi East 3.5 mph - N/A   Overcast
5:55 AM 73.4 °F 69.8 °F 88% 30.02 in 10.0 mi Calm Calm - N/A   Overcast
6:15 AM 73.4 °F 68.0 °F 83% 30.02 in 10.0 mi Calm Calm - N/A   Overcast
6:35 AM 71.6 °F 68.0 °F 88% 30.03 in 10.0 mi East 4.6 mph - N/A   Overcast
6:52 AM 73.4 °F 68.0 °F 83% 30.03 in 7.0 mi ENE 5.8 mph - N/A   Overcast
7:52 AM 73.4 °F 66.2 °F 78% 30.06 in 10.0 mi ENE 8.1 mph - N/A   Overcast
8:52 AM 73.4 °F 66.2 °F 78% 30.09 in 10.0 mi ENE 8.1 mph - N/A   Overcast
9:52 AM 73.4 °F 66.2 °F 78% 30.10 in 10.0 mi ENE 5.8 mph - N/A   Overcast
10:52 AM 75.2 °F 66.2 °F 73% 30.11 in 10.0 mi ENE 5.8 mph - N/A   Overcast
11:52 AM 78.8 °F 66.2 °F 65% 30.11 in 10.0 mi ENE 9.2 mph - N/A   Mostly Cloudy
12:52 PM 78.8 °F 64.4 °F 61% 30.11 in 10.0 mi ENE 9.2 mph - N/A   Overcast
1:52 PM 78.8 °F 64.4 °F 61% 30.11 in 10.0 mi NE 5.8 mph - N/A   Overcast
2:51 PM 78.8 °F 64.4 °F 61% 30.10 in 10.0 mi NE 6.9 mph - N/A   Overcast
3:55 PM 78.8 °F 64.4 °F 61% 30.10 in 10.0 mi East 5.8 mph - N/A   Overcast
4:55 PM 78.8 °F 64.4 °F 61% 30.09 in 10.0 mi East 6.9 mph - N/A   Overcast
5:55 PM 78.8 °F 64.4 °F 61% 30.10 in 10.0 mi NE 6.9 mph - N/A   Overcast
6:51 PM 77.0 °F 64.4 °F 65% 30.10 in 10.0 mi East 6.9 mph - N/A   Mostly Cloudy
7:53 PM 75.2 °F 62.6 °F 65% 30.10 in 10.0 mi NE 6.9 mph - N/A   Scattered Clouds
8:55 PM 73.4 °F 62.6 °F 69% 30.11 in 10.0 mi NE 4.6 mph - N/A   Scattered Clouds
9:51 PM 71.6 °F 62.6 °F 73% 30.13 in 10.0 mi ENE 6.9 mph - N/A   Clear
10:15 PM 69.8 °F 62.6 °F 78% 30.14 in 10.0 mi Calm Calm - N/A   Clear
10:35 PM 69.8 °F 62.6 °F 78% 30.14 in 10.0 mi Calm Calm - N/A   Clear
10:53 PM 69.8 °F 62.6 °F 78% 30.15 in 10.0 mi Calm Calm - N/A   Clear
10:55 PM 68.0 °F 62.6 °F 83% 30.15 in 10.0 mi Calm Calm - N/A   Clear
11:15 PM 66.2 °F 62.6 °F 88% 30.15 in 10.0 mi Calm Calm - N/A   Clear
11:35 PM 68.0 °F 62.6 °F 83% 30.16 in 10.0 mi Calm Calm - N/A   Clear
11:55 PM 68.0 °F 62.6 °F 83% 30.16 in 10.0 mi Calm Calm - N/A   Clear